Погода в Воздвиженье

Россия / Ивановская область     57°29′56″N   42°00′57″E
темп.,
°C
ветер,
м/с
пор.,
м/с
влажн.,
%
обл.,
%
осадки,
мм/ч
давл.,
гПа
погр.,
м
16 сентября, чт
чт1600:00+7ссз3784100 0.1 1010408
03:00+5с488586 0.1 1012515
06:00+2ссз39966 0.0 1015269
09:00+7ссз476746 0.0 1015619
12:00+9ссз3555100 0.0 10161395
15:00+9сз3556100 0.0 10171452
18:00+7сз3664100 0.0 1017402
21:00+6сз2671100 0.0 1017272
17 сентября, пт
пт1700:00+5зсз2673100 0.0 1018210
03:00+5сз2681100 0.0 1018238
06:00+3с27915 0.1 1018229
09:00+7ссз355881 0.1 10191029
12:00+8ссз3549100 0.0 10181662
15:00+9ссз455097 0.1 10181547
18:00+7ссз376991 0.1 1019407
21:00+3ссз269411 0.2 1021116
18 сентября, сб
сб1800:00+5ссз3886100 0.0 1021569
03:00+5ссз3789100 0.1 1022552
06:00+5с379183 0.1 1024585
09:00+6ссв457697 0.3 1025920
12:00+8ссв345185 0.1 10251457
15:00+10св344477 0.1 10251637
18:00+6ссв23645 0.0 102648
21:00+2св24785 0.0 102771
19 сентября, вс
вс1900:00+1ссв22799 0.0 102823
03:00+1св117955 0.0 102810
06:000св22865 0.0 102942
09:00+6св245699 0.0 1029588
12:00+8св344886 0.0 10281268
15:00+10св3447100 0.0 10281446
18:00+6св236664 0.0 102850
21:00+3св388098 0.0 1028183
20 сентября, пн
пн2000:00+2всв41180100 0.0 1029382
03:00+1всв41184100 0.0 1029403
06:00+1всв41183100 0.0 1029434
09:00+4всв51066100 0.0 1029624
12:00+7в685299 0.0 10291112
15:00+8в5850100 0.0 10281268
18:00+6всв595998 0.0 1027869
21:00+5всв51166100 0.0 1027688